FW4702 Weather Reports


Display with metric or nautical units.
time (UTC)temp
F
wind
direction
speed
MPH
gust
MPH
rain 1hr
in
rain 24hr
in
rain mn
in
humidity
%
barometer
mb
20260905165553 92 34 2.0 5.0 0.00 0.00 0.00 60 1014.7
20260905165056 92 352 1.0 4.0 0.00 0.00 0.00 61 1014.7
20260905164607 91 14 1.0 4.0 0.00 0.00 0.00 65 1014.8
20260905164053 91 238 0.0 4.0 0.00 0.00 0.00 68 1015.0
20260905163556 92 289 1.0 5.0 0.00 0.00 0.00 63 1015.1
20260905163106 91 352 1.0 5.0 0.00 0.00 0.00 64 1015.1
20260905162558 91 297 0.0 5.0 0.00 0.00 0.00 66 1015.3
20260905162056 91 342 1.0 5.0 0.00 0.00 0.00 64 1015.3
20260905161602 91 0 2.0 5.0 0.00 0.00 0.00 65 1015.3
20260905161056 90 0 1.0 4.0 0.00 0.00 0.00 66 1015.4
20260905160557 91 321 0.0 3.0 0.00 0.00 0.00 66 1015.4
20260905160101 90 32 0.0 3.0 0.00 0.00 0.00 67 1015.4
20260905155552 90 0 0.0 2.0 0.00 0.00 0.00 67 1015.5
20260905155052 89 0 0.0 3.0 0.00 0.00 0.00 70 1015.5
20260905154606 90 0 0.0 3.0 0.00 0.00 0.00 66 1015.6
20260905154056 89 50 0.0 3.0 0.00 0.00 0.00 69 1015.6
20260905153559 89 0 0.0 3.0 0.00 0.00 0.00 69 1015.6
20260905153104 89 5 1.0 2.0 0.00 0.00 0.00 68 1015.6
20260905152559 88 0 0.0 2.0 0.00 0.00 0.00 70 1015.6
20260905152056 88 0 0.0 2.0 0.00 0.00 0.00 72 1015.5
20260905151622 87 0 0.0 2.0 0.00 0.00 0.00 73 1015.7
20260905151056 86 0 0.0 2.0 0.00 0.00 0.00 80 1015.7
20260905150555 85 0 0.0 2.0 0.00 0.00 0.00 81 1015.6
20260905150104 86 0 0.0 1.0 0.00 0.00 0.00 79 1015.6
20260905145559 86 0 0.0 1.0 0.00 0.00 0.00 80 1015.5
20260905145055 85 165 0.0 1.0 0.00 0.00 0.00 81 1015.6
20260905144600 85 0 0.0 2.0 0.00 0.00 0.00 81 1015.5
20260905144058 84 0 0.0 2.0 0.00 0.00 0.00 82 1015.6
20260905143557 85 0 0.0 2.0 0.00 0.00 0.00 80 1015.6
20260905143105 84 58 0.0 2.0 0.00 0.00 0.00 81 1015.7
20260905142558 84 0 0.0 2.0 0.00 0.00 0.00 83 1015.8
20260905142055 83 0 0.0 2.0 0.00 0.00 0.00 84 1015.9
20260905141603 82 0 0.0 1.0 0.00 0.00 0.00 86 1015.9
20260905141057 82 0 0.0 1.0 0.00 0.00 0.00 85 1015.9
20260905140556 82 0 0.0 2.0 0.00 0.00 0.00 85 1016.0
20260905140105 82 0 0.0 2.0 0.00 0.00 0.00 85 1015.9
20260905135557 82 0 0.0 2.0 0.00 0.00 0.00 87 1016.0
20260905135057 81 0 0.0 0.0 0.00 0.00 0.00 88 1016.0
20260905134601 80 0 0.0 0.0 0.00 0.00 0.00 90 1016.1
20260905134059 80 0 0.0 0.0 0.00 0.00 0.00 90 1016.0
20260905133556 79 0 0.0 0.0 0.00 0.00 0.00 90 1016.0
20260905133105 79 0 0.0 0.0 0.00 0.00 0.00 90 1016.1
20260905132556 79 0 0.0 0.0 0.00 0.00 0.00 91 1016.1
20260905132056 78 0 0.0 0.0 0.00 0.00 0.00 91 1016.1
20260905131609 78 0 0.0 0.0 0.00 0.00 0.00 93 1016.2
20260905131055 77 0 0.0 0.0 0.00 0.00 0.00 93 1016.2
20260905130557 77 0 0.0 0.0 0.00 0.00 0.00 95 1016.2
20260905125556 76 0 0.0 0.0 0.00 0.00 0.00 96 1016.1
20260905125059 75 0 0.0 0.0 0.00 0.00 0.00 97 1016.2
20260905124601 75 0 0.0 0.0 0.00 0.00 0.00 97 1016.2
20260905124055 74 0 0.0 0.0 0.00 0.00 0.00 97 1016.2
20260905123556 74 0 0.0 0.0 0.00 0.00 0.00 97 1016.2
20260905123111 74 0 0.0 0.0 0.00 0.00 0.00 97 1016.2
20260905122601 73 0 0.0 0.0 0.00 0.00 0.00 97 1016.1
20260905122055 73 0 0.0 0.0 0.00 0.00 0.00 97 1016.1
20260905121608 73 0 0.0 0.0 0.00 0.00 0.00 97 1016.1
20260905121053 73 0 0.0 0.0 0.00 0.00 0.00 97 1016.0
20260905120559 73 0 0.0 0.0 0.00 0.00 0.00 97 1015.9
20260905120105 72 0 0.0 0.0 0.00 0.00 0.00 97 1015.9
20260905115556 72 0 0.0 0.0 0.00 0.00 0.00 97 1015.8
20260905115055 72 0 0.0 0.0 0.00 0.00 0.00 97 1015.8
20260905114603 72 0 0.0 0.0 0.00 0.00 0.00 97 1015.7
20260905114052 72 0 0.0 0.0 0.00 0.00 0.00 97 1015.5
20260905113556 72 0 0.0 0.0 0.00 0.00 0.00 97 1015.4
20260905113112 72 0 0.0 0.0 0.00 0.00 0.00 97 1015.3
20260905112559 72 0 0.0 0.0 0.00 0.00 0.00 97 1015.3
20260905112055 72 0 0.0 0.0 0.00 0.00 0.00 97 1015.3
20260905111606 72 0 0.0 0.0 0.00 0.00 0.00 97 1015.1
20260905111055 72 0 0.0 0.0 0.00 0.00 0.00 97 1015.1
20260905110601 72 0 0.0 0.0 0.00 0.00 0.00 97 1015.0
20260905110109 72 0 0.0 0.0 0.00 0.00 0.00 96 1014.9
20260905105556 72 0 0.0 0.0 0.00 0.00 0.00 96 1014.9
20260905105057 72 0 0.0 0.0 0.00 0.00 0.00 97 1015.0
20260905104610 72 0 0.0 0.0 0.00 0.00 0.00 96 1014.8
20260905104052 72 0 0.0 0.0 0.00 0.00 0.00 96 1014.9
20260905103556 72 0 0.0 0.0 0.00 0.00 0.00 96 1014.8
20260905103107 72 0 0.0 0.0 0.00 0.00 0.00 96 1014.7
20260905102555 73 0 0.0 0.0 0.00 0.00 0.00 96 1014.7
20260905102055 73 0 0.0 0.0 0.00 0.00 0.00 97 1014.7
20260905101607 73 0 0.0 0.0 0.00 0.00 0.00 96 1014.6
20260905101055 73 0 0.0 0.0 0.00 0.00 0.00 96 1014.6
20260905100556 73 0 0.0 0.0 0.00 0.00 0.00 96 1014.5
20260905100110 73 0 0.0 0.0 0.00 0.00 0.00 96 1014.6
20260905095555 73 0 0.0 0.0 0.00 0.00 0.00 96 1014.6
20260905095056 72 0 0.0 0.0 0.00 0.00 0.00 96 1014.6
20260905094604 73 0 0.0 0.0 0.00 0.00 0.00 96 1014.7
20260905094055 73 0 0.0 0.0 0.00 0.00 0.00 96 1014.7
20260905093555 73 0 0.0 0.0 0.00 0.00 0.00 96 1014.6
20260905093106 73 0 0.0 0.0 0.00 0.00 0.00 96 1014.6
20260905092555 73 0 0.0 0.0 0.00 0.00 0.00 96 1014.6
20260905092055 73 0 0.0 0.0 0.00 0.00 0.00 96 1014.5
20260905091603 73 0 0.0 0.0 0.00 0.00 0.00 96 1014.5
20260905091055 73 0 0.0 0.0 0.00 0.00 0.00 96 1014.4
20260905090556 73 0 0.0 0.0 0.00 0.00 0.00 96 1014.3
20260905090110 73 0 0.0 0.0 0.00 0.00 0.00 96 1014.4
20260905085556 73 0 0.0 0.0 0.00 0.00 0.00 96 1014.4
20260905085056 73 0 0.0 0.0 0.00 0.00 0.00 96 1014.5
20260905084612 73 0 0.0 0.0 0.00 0.00 0.00 96 1014.5
20260905084057 73 0 0.0 0.0 0.00 0.00 0.00 96 1014.5
20260905083556 73 0 0.0 0.0 0.00 0.00 0.00 95 1014.4
20260905083102 73 0 0.0 0.0 0.00 0.00 0.00 96 1014.5
20260905082555 73 0 0.0 0.0 0.00 0.00 0.00 95 1014.4
20260905082055 73 0 0.0 1.0 0.00 0.00 0.00 95 1014.4
20260905081558 73 0 0.0 1.0 0.00 0.00 0.00 95 1014.4
20260905081056 74 0 0.0 1.0 0.00 0.00 0.00 95 1014.5
20260905080558 74 0 0.0 0.0 0.00 0.00 0.00 95 1014.4
20260905080141 73 0 0.0 0.0 0.00 0.00 0.00 95 1014.2
20260905075556 73 0 0.0 0.0 0.00 0.00 0.00 95 1014.2
20260905075055 73 0 0.0 0.0 0.00 0.00 0.00 95 1014.1
20260905074606 74 0 0.0 0.0 0.00 0.00 0.00 95 1014.1
20260905074055 74 0 0.0 0.0 0.00 0.00 0.00 95 1014.0
20260905073555 74 0 0.0 0.0 0.00 0.00 0.00 95 1014.2
20260905073104 74 0 0.0 0.0 0.00 0.00 0.00 95 1014.2
20260905072559 74 0 0.0 0.0 0.00 0.00 0.00 95 1014.2
20260905072055 74 0 0.0 0.0 0.00 0.00 0.00 95 1014.2
20260905071604 74 0 0.0 0.0 0.00 0.00 0.00 95 1014.2
20260905071059 74 0 0.0 0.0 0.00 0.00 0.00 95 1014.2
20260905070558 74 0 0.0 0.0 0.00 0.00 0.00 95 1014.4
20260905070100 74 0 0.0 0.0 0.00 0.00 0.00 95 1014.5
20260905065556 74 0 0.0 0.0 0.00 0.00 0.00 95 1014.5
20260905065055 74 0 0.0 0.0 0.00 0.00 0.00 94 1014.5
20260905064605 74 0 0.0 0.0 0.00 0.00 0.00 95 1014.6
20260905064055 74 0 0.0 0.0 0.00 0.00 0.00 95 1014.7
20260905063556 74 0 0.0 0.0 0.00 0.00 0.00 95 1014.6
20260905063103 74 0 0.0 0.0 0.00 0.00 0.00 94 1014.6
20260905062555 74 0 0.0 0.0 0.00 0.00 0.00 94 1014.7
20260905062056 74 0 0.0 0.0 0.00 0.00 0.00 94 1014.7
20260905061606 74 0 0.0 0.0 0.00 0.00 0.00 94 1014.8
20260905061055 74 0 0.0 0.0 0.00 0.00 0.00 94 1014.8
20260905060556 74 0 0.0 0.0 0.00 0.00 0.00 94 1014.8
20260905060104 74 0 0.0 0.0 0.00 0.00 0.00 94 1014.8
20260905055600 74 0 0.0 0.0 0.00 0.00 0.00 94 1014.9
20260905055058 74 0 0.0 0.0 0.00 0.00 0.00 94 1014.9
20260905054623 74 0 0.0 0.0 0.00 0.00 0.00 94 1014.9
20260905054055 75 0 0.0 0.0 0.00 0.00 0.00 94 1014.9
20260905053556 75 0 0.0 0.0 0.00 0.00 0.00 94 1014.8
20260905053112 75 0 0.0 0.0 0.00 0.00 0.00 94 1014.8
20260905052600 75 0 0.0 0.0 0.00 0.00 0.00 93 1014.8
20260905052058 75 0 0.0 0.0 0.00 0.00 0.00 94 1014.7
20260905051622 75 0 0.0 0.0 0.00 0.00 0.00 94 1014.8
20260905051058 75 0 0.0 0.0 0.00 0.00 0.00 93 1014.7
20260905050558 75 0 0.0 0.0 0.00 0.00 0.00 93 1014.9
20260905050112 75 0 0.0 0.0 0.00 0.00 0.00 92 1014.9
20260905045557 75 0 0.0 0.0 0.00 0.00 0.00 92 1014.9
20260905045058 75 0 0.0 0.0 0.00 0.00 0.00 93 1015.0
20260905044607 75 0 0.0 0.0 0.00 0.00 0.00 93 1014.8
20260905044058 75 0 0.0 0.0 0.00 0.00 0.00 93 1014.7
20260905043558 75 0 0.0 0.0 0.00 0.00 0.00 93 1014.9
20260905043114 75 0 0.0 0.0 0.00 0.00 0.00 92 1015.0
20260905042557 75 0 0.0 0.0 0.00 0.00 0.00 92 1015.0
20260905042058 75 0 0.0 0.0 0.00 0.00 0.00 92 1015.0
20260905041619 75 0 0.0 0.0 0.00 0.00 0.00 92 1014.9
20260905041102 76 0 0.0 0.0 0.00 0.00 0.00 91 1015.0
20260905040558 76 0 0.0 0.0 0.00 0.00 0.00 91 1015.1
20260905040110 76 0 0.0 0.0 0.00 0.00 0.00 91 1015.1
20260905035558 75 0 0.0 0.0 0.00 0.00 0.00 92 1015.1
20260905035058 75 0 0.0 0.0 0.00 0.00 0.00 92 1015.1
20260905034606 76 0 0.0 0.0 0.00 0.00 0.00 92 1015.2
20260905034059 75 0 0.0 0.0 0.00 0.00 0.00 92 1015.2
20260905033558 75 0 0.0 0.0 0.00 0.00 0.00 91 1015.1
20260905033103 76 0 0.0 0.0 0.00 0.00 0.00 91 1015.1
20260905032602 76 0 0.0 0.0 0.00 0.00 0.00 91 1015.3
20260905032058 76 0 0.0 0.0 0.00 0.00 0.00 91 1015.3
20260905031601 76 0 0.0 0.0 0.00 0.00 0.00 91 1015.2
20260905031101 76 0 0.0 0.0 0.00 0.00 0.00 91 1015.4
20260905030558 76 0 0.0 0.0 0.00 0.00 0.00 90 1015.3
20260905030106 76 0 0.0 0.0 0.00 0.00 0.00 90 1015.4
20260905025558 77 0 0.0 0.0 0.00 0.00 0.00 90 1015.4
20260905025058 77 0 0.0 0.0 0.00 0.00 0.00 90 1015.5
20260905024606 77 0 0.0 0.0 0.00 0.00 0.00 91 1015.5
20260905024057 77 0 0.0 0.0 0.00 0.00 0.00 90 1015.5
20260905023557 77 0 0.0 0.0 0.00 0.00 0.00 90 1015.6
20260905023103 77 0 0.0 1.0 0.00 0.00 0.00 89 1015.6
20260905022557 77 0 0.0 1.0 0.00 0.00 0.00 89 1015.6
20260905022057 77 22 0.0 1.0 0.00 0.00 0.00 90 1015.6
20260905021605 77 0 0.0 0.0 0.00 0.00 0.00 90 1015.6
20260905021059 77 0 0.0 0.0 0.00 0.00 0.00 90 1015.6
20260905020559 77 0 0.0 0.0 0.00 0.00 0.00 90 1015.5
20260905020103 78 0 0.0 0.0 0.00 0.00 0.00 89 1015.4
20260905015555 78 0 0.0 1.0 0.00 0.00 0.00 88 1015.6
20260905015055 78 0 0.0 1.0 0.00 0.00 0.00 88 1015.6
20260905014602 78 0 0.0 0.0 0.00 0.00 0.00 87 1015.6
20260905014056 78 0 0.0 0.0 0.00 0.00 0.00 88 1015.6
20260905013555 78 0 0.0 0.0 0.00 0.00 0.00 89 1015.6
20260905013108 78 0 0.0 0.0 0.00 0.00 0.00 88 1015.6
20260905012557 79 0 0.0 0.0 0.00 0.00 0.00 87 1015.5
20260905012056 79 0 0.0 0.0 0.00 0.00 0.00 87 1015.6
20260905011621 79 0 0.0 0.0 0.00 0.00 0.00 88 1015.4
20260905011055 79 0 0.0 0.0 0.00 0.00 0.00 87 1015.4
20260905010555 79 0 0.0 0.0 0.00 0.00 0.00 86 1015.4
20260905010103 79 0 0.0 0.0 0.00 0.00 0.00 87 1015.3
20260905005555 79 0 0.0 0.0 0.00 0.00 0.00 86 1015.4
20260905005056 79 0 0.0 0.0 0.00 0.00 0.00 86 1015.4
20260905004558 79 0 0.0 0.0 0.00 0.00 0.00 86 1015.5
20260905004056 80 0 0.0 0.0 0.00 0.00 0.00 85 1015.5
20260905003556 80 0 0.0 0.0 0.00 0.00 0.00 83 1015.5
20260905003106 80 0 0.0 0.0 0.00 0.00 0.00 84 1015.4
20260905002555 80 0 0.0 0.0 0.00 0.00 0.00 83 1015.5
20260905002057 80 0 0.0 0.0 0.00 0.00 0.00 83 1015.4
20260905001611 81 0 0.0 0.0 0.00 0.00 0.00 81 1015.4
20260905001055 81 0 0.0 1.0 0.00 0.00 0.00 80 1015.4
20260905000555 82 0 0.0 1.0 0.00 0.00 0.00 80 1015.3
20260905000110 82 0 0.0 0.0 0.00 0.00 0.00 77 1015.3
20260904235552 82 0 0.0 1.0 0.00 0.00 0.00 77 1015.3
20260904235056 82 0 0.0 1.0 0.00 0.00 0.00 78 1015.4
20260904234606 82 0 0.0 3.0 0.00 0.00 0.00 77 1015.5
20260904234058 83 0 0.0 3.0 0.00 0.00 0.00 76 1015.5
20260904233559 83 0 0.0 2.0 0.00 0.00 0.00 76 1015.5
20260904233112 83 337 0.0 3.0 0.00 0.00 0.00 75 1015.4
20260904232556 84 0 0.0 4.0 0.00 0.00 0.00 73 1015.4
20260904232059 84 0 1.0 5.0 0.00 0.00 0.00 72 1015.4
20260904231604 85 319 1.0 5.0 0.00 0.00 0.00 71 1015.3
20260904231055 85 269 2.0 5.0 0.00 0.00 0.00 70 1015.4
20260904230555 85 5 1.0 4.0 0.00 0.00 0.00 70 1015.3
20260904225551 86 327 1.0 4.0 0.00 0.00 0.00 70 1015.3
20260904225056 86 316 0.0 11.0 0.00 0.00 0.00 70 1015.1
20260904224605 87 0 0.0 11.0 0.00 0.00 0.00 69 1014.9
20260904224056 88 321 4.0 11.0 0.00 0.00 0.00 67 1014.8
20260904223556 89 323 2.0 10.0 0.00 0.00 0.00 67 1014.8
20260904223111 89 323 3.0 10.0 0.00 0.00 0.00 65 1014.9
20260904222555 90 299 2.0 10.0 0.00 0.00 0.00 66 1014.9
20260904222056 90 0 0.0 2.0 0.00 0.00 0.00 68 1014.7
20260904221606 90 0 0.0 2.0 0.00 0.00 0.00 69 1014.6
20260904221056 90 0 0.0 2.0 0.00 0.00 0.00 69 1014.7
20260904220555 90 0 0.0 2.0 0.00 0.00 0.00 70 1014.7
20260904220122 90 0 0.0 2.0 0.00 0.00 0.00 70 1014.7
20260904215555 90 0 0.0 6.0 0.00 0.00 0.00 67 1014.7
20260904215055 90 303 1.0 6.0 0.00 0.00 0.00 68 1014.7
20260904214608 90 0 1.0 4.0 0.00 0.00 0.00 67 1014.6
20260904214057 89 293 0.0 3.0 0.00 0.00 0.00 68 1014.8
20260904213552 88 0 0.0 2.0 0.00 0.00 0.00 69 1014.8
20260904213108 88 0 0.0 2.0 0.00 0.00 0.00 70 1014.6
20260904212558 87 225 0.0 3.0 0.00 0.00 0.00 75 1014.7
20260904212056 86 0 0.0 3.0 0.00 0.00 0.00 75 1014.8
20260904211613 86 235 0.0 3.0 0.00 0.00 0.00 74 1014.8
20260904211055 86 222 1.0 4.0 0.00 0.00 0.00 72 1014.7
20260904210555 87 197 1.0 4.0 0.00 0.00 0.00 72 1014.8
20260904210104 88 190 1.0 4.0 0.00 0.00 0.00 70 1014.7
20260904205558 89 175 1.0 3.0 0.00 0.00 0.00 68 1014.8
20260904205056 90 0 0.0 3.0 0.00 0.00 0.00 67 1014.6
20260904204601 91 0 0.0 6.0 0.00 0.00 0.00 64 1014.5
20260904204054 93 194 1.0 6.0 0.00 0.00 0.00 63 1014.8
20260904203552 93 0 0.0 2.0 0.00 0.00 0.00 60 1014.9
20260904203057 94 0 0.0 4.0 0.00 0.00 0.00 55 1014.9
20260904202555 95 0 2.0 4.0 0.00 0.00 0.00 54 1014.9
20260904202055 94 142 1.0 2.0 0.00 0.00 0.00 57 1014.9
20260904201627 93 0 0.0 2.0 0.00 0.00 0.00 62 1015.1
20260904201055 93 0 0.0 2.0 0.00 0.00 0.00 62 1015.2
20260904200555 92 281 0.0 1.0 0.00 0.00 0.00 64 1015.2
20260904200107 92 0 0.0 1.0 0.00 0.00 0.00 64 1015.3
20260904195555 91 0 0.0 1.0 0.00 0.00 0.00 70 1015.3
20260904195056 89 0 0.0 0.0 0.00 0.00 0.00 78 1015.5
20260904194604 87 0 0.0 0.0 0.00 0.00 0.00 80 1015.5
20260904194056 88 0 0.0 0.0 0.00 0.00 0.00 79 1015.5
20260904193556 88 0 0.0 0.0 0.00 0.00 0.00 77 1015.6
20260904193108 88 0 0.0 0.0 0.00 0.00 0.00 74 1015.6
20260904192555 89 0 0.0 1.0 0.00 0.00 0.00 72 1015.6
20260904192100 90 0 0.0 2.0 0.00 0.00 0.00 67 1015.8
20260904191600 92 0 0.0 2.0 0.00 0.00 0.00 64 1015.9
20260904191055 92 0 0.0 2.0 0.00 0.00 0.00 62 1015.9
20260904190556 93 0 0.0 2.0 0.00 0.00 0.00 59 1015.9
20260904185555 93 294 1.0 2.0 0.00 0.00 0.00 61 1016.1
20260904185055 93 284 0.0 2.0 0.00 0.00 0.00 61 1016.1
20260904184601 93 251 1.0 2.0 0.00 0.00 0.00 62 1016.3
20260904184056 93 352 0.0 2.0 0.00 0.00 0.00 62 1016.3
20260904183556 92 0 0.0 1.0 0.00 0.00 0.00 61 1016.3
20260904183120 92 0 0.0 2.0 0.00 0.00 0.00 64 1016.5
20260904182555 92 0 0.0 4.0 0.00 0.00 0.00 64 1016.5
20260904182055 93 66 1.0 4.0 0.00 0.00 0.00 58 1016.6
20260904181603 93 69 0.0 4.0 0.00 0.00 0.00 60 1016.6
20260904181055 93 352 1.0 4.0 0.00 0.00 0.00 59 1016.6
20260904180555 93 327 0.0 3.0 0.00 0.00 0.00 61 1016.8
20260904180118 92 0 0.0 3.0 0.00 0.00 0.00 64 1016.9
20260904175555 92 59 0.0 2.0 0.00 0.00 0.00 62 1017.0
20260904175055 92 0 1.0 4.0 0.00 0.00 0.00 62 1017.0
20260904174610 92 0 1.0 4.0 0.00 0.00 0.00 62 1017.0
20260904174055 92 0 0.0 2.0 0.00 0.00 0.00 64 1017.2
20260904173555 92 217 1.0 2.0 0.00 0.00 0.00 66 1017.2
20260904173118 92 225 0.0 2.0 0.00 0.00 0.00 69 1017.3
20260904172555 92 0 0.0 2.0 0.00 0.00 0.00 66 1017.3
20260904172055 91 0 0.0 2.0 0.00 0.00 0.00 66 1017.2
20260904171608 92 172 0.0 2.0 0.00 0.00 0.00 66 1017.4
20260904171054 91 112 0.0 3.0 0.00 0.00 0.00 66 1017.4
20260904170559 92 0 1.0 3.0 0.00 0.00 0.00 64 1017.4
20260904170110 92 156 1.0 3.0 0.00 0.00 0.00 64 1017.5